Back to catalog

CZ-6A DEB

AlivePO
NORAD 60693·DEBRIS·🇨🇳 China

Launched Aug 6, 2024 from Taiyuan Satellite Launch Center

Loading…

Next Passes (next 24 hours)

TLE

FreshSource: Space-Track

Epoch: Sep 14, 2026, 10:51 UTC

1 60693U 24140CW  26257.45273045  .00000203  00000-0  10208-3 0  9996
2 60693  89.0084 267.0453 0080949 285.6059  73.6203 14.11194641107963

Track CZ-6A DEB in real time with AllMySat

Download on the App Store